Location: Dal�� Lhota
(48.7500°N, 14.0167°E)
Time: 17:05:38
(UTC+00:00)

S-56A Canister/Altair - Pass Details

Date: 02 August 2021
Orbit: 632 x 2500 km, 38.9° (Epoch: 19 September)

Event Time Altitude Azimuth Distance (km) Brightness Sun altitude
Rises 20:50:56 0° 280° (W) 6,152 12.8 -16.8°
Reaches altitude 10° 20:57:52 10° 260° (W) 4,969 11.9 -17.5°
Maximum altitude 21:03:54 14° 234° (SW) 4,361 11.3 -18.0°
Drops below altitude 10° 21:09:21 10° 207° (SSW) 4,385 11.1 -18.5°
Enters shadow 21:11:48 - 196° (SSW) 4,592 11.1 -18.7°
